Volver al catálogo

CURIE

ActivoMilitarVLEO
NORAD 60241·PAYLOAD·🇵🇱 Poland

Lanzado Jul 9, 2024 desde Guiana Space Centre

Loading…

Próximos Pases (próximas 24 horas)

TLE

ActualizadoSource: Space-Track

Época: Sep 14, 2026, 01:11 UTC

1 60241U 24128G   26257.04939995  .00002746  00000-0  18995-3 0  9994
2 60241  61.9883 262.0317 0027053 153.3465 206.9026 15.08069324119717

Sigue CURIE en tiempo real con AllMySat

Download on the App Store